sat.trackr.live / text

‹ back to catalog

STARLINK-35484

NORAD 65923 · 2025-225P

PAYLOAD ACTIVE UNKNOWN

§ Identity

Operator
Country
US
Launch date
2025-10-08
Launch site
AFWTR
Launch vehicle
Mass (kg)
RCS (m²)

Purposes: comms

External: N2YO · Heavens-Above · Gunter

§ Orbital elements

Epoch: 2026-09-20T10:37:00.861312Z

Period
93.85 min
Inclination
53.1605°
Eccentricity
0.0001249
Mean motion
15.34398674 rev/d
Perigee alt
461.9 km
Apogee alt
463.6 km
Semi-major
6,840.8 km
B*
4.5445e-4
RAAN
337.6681°
Arg perigee
84.8534°
Mean anomaly
275.2611°
Rev number
5,427

§ Raw data

STARLINK-354841 65923U 25225P   26263.44237108  .00015008  00000+0  45445-3 0  99972 65923  53.1605 337.6681 0001249  84.8534 275.2611 15.34398674 54271

JSON: /api/v1/satellites/65923 · /tle

For live sub-satellite position, see the globe view (requires WebGL).

§ Visibility from observer

Set your observer location to see the next 7 days of passes ≥ 10°. The values pass through the URL so the page stays shareable.

No JS? Fill the form by hand. The geolocation button needs JavaScript.